Preview of NWS' New Version of Forecast
This preview is not operational and should not be used for support decisions.

Regional Weather Roundup (RWR)

Issued by Bismarck, ND (BIS)

                            
000
ASUS43 KBIS 170510
RWRBIS

NWR BROADCAST TEXT
NATIONAL WEATHER SERVICE BISMARCK ND
1100 PM CST SUN DEC 16 2018

NOTE: "FAIR" INDICATES FEW OR NO CLOUDS BELOW 12,000 FEET WITH NO
SIGNIFICANT WEATHER AND/OR OBSTRUCTIONS TO VISIBILITY.

  
CITY           SKY/WX    TMP DP  RH WIND       PRES   REMARKS
WILLISTON      MOCLDY    28  18  66 CALM      30.08F                  
MINOT          CLOUDY    22  17  81 E3        30.17F                  
MINOT AFB      CLOUDY    19  17  89 SE6       30.17F WCI  11          
BISMARCK       CLEAR     23  19  85 E8        30.20F WCI  14          
DICKINSON      CLEAR     27  19  72 SE12      30.07F WCI  17          
GARRISON         N/A     24  18  77 E9        30.16F WCI  14          
HETTINGER ARPT CLEAR     28  19  69 SE9       30.11F WCI  19          
JAMESTOWN      CLEAR     21  18  88 CALM      30.23S                  
CARRINGTON     FAIR      25  21  86 E5        30.25R WCI  19          
HAZEN          FAIR      23  21  93 CALM      30.18F                  
LINTON           N/A     19  18  93 SE7       30.21F WCI  10          
MANDAN         FAIR      27  23  86 E7        30.18F WCI  19          
OAKES          FAIR      21  21 100 N3        30.25F                  
RUGBY          FAIR      12  10  92 E3        30.22R                  
STANLEY        FAIR      23  19  86 E8        30.13F WCI  14          
TIOGA          FAIR      23  21  93 E8        30.12F WCI  14          
WATFORD CITY   FAIR      27  19  74 CALM      30.08F                  
$$
  
CITY           SKY/WX    TMP DP  RH WIND       PRES   REMARKS
GRAND FORKS    PTCLDY    11  10  96 N5        30.28S WCI   3          
GRAND FORKS AF CLEAR     16  13  87 N5        30.28S WCI   9          
DEVILS LAKE    CLEAR     14  12  92 CALM      30.26R                  
FARGO          CLEAR     21  17  84 NW3       30.28S                  
CANDO          FAIR       9   9 100 NE3       30.26R                  
CAVALIER       FAIR      16  10  79 N6        30.29S WCI   7          
GRAFTON        FAIR      18  14  86 N6        30.31S WCI   9          
GWINNER          N/A     25  19  80 CALM      30.25F                  
LANGDON        FAIR      10  10 100 CALM      30.24R                  
ROLLA          FAIR       7   5  92 CALM      30.22R                  
WALHALLA         N/A     16  16 100 N3        30.29R                  
$$
  
CITY           SKY/WX    TMP DP  RH WIND       PRES   REMARKS
ABERDEEN       CLEAR     23  18  81 E5        30.25S WCI  17          
MOBRIDGE       CLEAR     28  18  66 E6        30.16F                  
BUFFALO          N/A     33  23  66 S6        30.04F                  
RAPID CITY     CLEAR     33  22  63 SE5       30.07F                  
GLASGOW        CLEAR     28  22  78 E17       29.94F WCI  16          
SIDNEY         PTCLDY    28  22  78 CALM      30.05F                  
WOLF POINT     CLEAR     24  20  84 E8        30.02F WCI  15          
GLENDIVE       PTCLDY    30  24  78 E5        30.02F                  
MILES CITY     CLEAR     29  26  89 S7        29.99F                  
BAKER          CLEAR     29  25  85 E8        30.04F                  
$$
  
CITY           SKY/WX    TMP DP  RH WIND       PRES   REMARKS
BILLINGS       PTCLDY    45  17  32 SW20      29.98S                  
GREAT FALLS    CLEAR     45  17  32 S17       29.86F                  
REGINA         PTCLDY    18  12  79 SE16G24   30.07F WCI   3          
ESTEVAN        CLEAR     19  16  86 E10       30.11F WCI   8          
$$